Simultaneous Nadir Overpasses (SNOs) Predictions

Prediction of SNOs between AQUA and NOAA-19 Satellite Orbit:

Table of predicted SNOs for the next 14.0 days since TLE Epoch: 7/12/2025
Index Date (AQUA) Time (AQUA) Lat,Lon (AQUA) SZA (AQUA ) Date (NOAA-19) Time (NOAA-19) Lat,Lon (NOAA-19) SZA (NOAA-19 ) Distance(km) Time Diff (sec)
1 07/13/2025 23:35:15 75.77,-167.54 54.08 07/13/2025 23:34:35 75.77,-167.50 54.07 1.59 40
2 07/14/2025 00:24:34 -75.85, -0.10 125.85 07/14/2025 00:25:31 -75.84, 0.03 125.85 3.82 57
3 07/16/2025 01:42:28 -75.77, -19.27 125.60 07/16/2025 01:41:47 -75.76, -19.27 125.61 0.64 41
4 07/16/2025 02:31:48 75.84, 148.18 54.48 07/16/2025 02:32:45 75.81, 148.17 54.46 3.14 57
5 07/18/2025 03:49:42 75.77, 128.97 54.76 07/18/2025 03:49:01 75.75, 128.92 54.74 2.90 41
6 07/18/2025 04:39:01 -75.85, -63.59 125.16 07/18/2025 04:39:56 -75.83, -63.54 125.18 2.43 55
7 07/20/2025 05:56:55 -75.79, -82.84 124.84 07/20/2025 05:56:11 -75.78, -82.72 124.85 3.36 44
8 07/20/2025 06:46:14 75.82, 84.75 55.20 07/20/2025 06:47:10 75.83, 84.70 55.22 1.69 56
9 07/22/2025 08:04:08 75.78, 65.45 55.56 07/22/2025 08:03:26 75.75, 65.42 55.53 2.83 42
10 07/22/2025 08:53:27 -75.85,-127.10 124.37 07/22/2025 08:54:20 -75.84,-127.02 124.37 2.43 53
11 07/24/2025 10:11:20 -75.77,-146.28 124.01 07/24/2025 10:10:35 -75.79,-146.22 124.00 2.16 45



Historial Predications of SNOs between AQUA and NOAA-19
